Airfield :
LOGIN :

Register | Disclaimer

   EN    FR    IT 

 










Legend :    VFR   Marginal VFR   IFR   Intensive IFR   Very Intensive IFR
Visi :
Ceiling :
>= 8 km
>= 3000ft
5 to 8 km
1000 to 3000 ft
1500m to 5 km
500 to 1000 ft
800 to 1500m
200 to 500 ft
< 800m
< 200 ft
Symbols :   Thunderstorms  Fog  Heavy snow  Heavy precipitations  Wind > 20 kt
SIGMETs :     Misc.  Thunderstorms  Icing  Turbulence  Mountain Waves  Volcanic Ashes







- Airport Elevation : 13 ft
- IATA code : GOA


LIMJ - Genoa Cristoforo Colombo

CURRENT METAR :
  • 200920Z VRB03KT CAVOK 24/14 Q1015

EXPIRED METARs :
  • 200850Z VRB05KT CAVOK 23/14 Q1015
  • 200820Z 05007KT 010V090 CAVOK 22/14 Q1015
  • 200750Z 05008KT 020V090 CAVOK 21/14 Q1015
  • 200720Z 04007KT 010V080 CAVOK 21/14 Q1015
  • 200650Z 03007KT 350V060 CAVOK 21/13 Q1015

TAF TAF LIMJ
Valid from the 20 at 06:00 until the 21 at 06:00 UTC


200500Z 2006/2106 02008KT 9999 SCT030
TEMPO 2010/2018 4000 TSRA
No reported NOTAMs for that airfield.



MET'MAP, your aeronautical weather chart ! - Copyright ORBIFLY December 2007 - Disclaimer

ORBIFLY MET'MAP TEAM :

Programming & Development : Alexandra Zaïnal
Concept & Development : Baudouin d'Aumeries
Co-Development & Prog : Marc-Olivier Méhu
Technical & hardware support : Manuel Goepfert

Contact : metmap@orbifly.com




SOURCES & CREDITS :

   NOAA